TimeEST,TemperatureF,Dew PointF,Humidity,Sea Level PressureIn,VisibilityMPH,Wind Direction,Wind SpeedMPH,Gust SpeedMPH,PrecipitationIn,Events,Conditions,WindDirDegrees,DateUTC
12:05 AM,15.8,8.6,73,29.97,9.0,West,16.1,24.2,0.00,,Overcast,270,2013-02-20 05:05:00
12:51 AM,15.8,8.6,73,29.98,6.0,West,16.1,25.3,0.00,Snow,Light Snow,270,2013-02-20 05:51:00
12:56 AM,15.1,8.1,74,30.04,8.0,West,13.8,24.2,0.00,Snow,Light Snow,270,2013-02-20 05:56:00
1:09 AM,15.8,8.6,73,29.98,9.0,West,15.0,25.3,0.00,,Overcast,270,2013-02-20 06:09:00
1:56 AM,16.0,8.1,71,30.04,10.0,West,17.3,25.3,0.00,,Overcast,270,2013-02-20 06:56:00
2:56 AM,16.0,8.1,71,30.05,10.0,West,17.3,-,N/A,,Overcast,270,2013-02-20 07:56:00
3:56 AM,16.0,8.1,71,30.05,10.0,West,17.3,26.5,0.00,,Overcast,270,2013-02-20 08:56:00
4:56 AM,16.0,8.1,71,30.07,10.0,West,16.1,24.2,0.00,,Overcast,260,2013-02-20 09:56:00
6:56 AM,16.0,9.0,74,30.11,6.0,West,13.8,-,0.00,Snow,Light Snow,280,2013-02-20 11:56:00
7:56 AM,16.0,9.0,74,30.12,4.0,West,16.1,25.3,0.00,Snow,Light Snow,270,2013-02-20 12:56:00
8:31 AM,15.8,10.4,79,30.07,5.0,West,16.1,25.3,0.00,Snow,Light Snow,270,2013-02-20 13:31:00
8:42 AM,17.6,10.4,73,30.07,7.0,West,16.1,21.9,0.00,,Overcast,270,2013-02-20 13:42:00
8:56 AM,17.1,10.0,74,30.14,4.0,West,13.8,25.3,0.00,Snow,Light Snow,270,2013-02-20 13:56:00
9:03 AM,17.6,10.4,73,30.07,4.0,West,17.3,-,0.00,Snow,Light Snow,270,2013-02-20 14:03:00
9:56 AM,17.1,10.0,74,30.14,5.0,West,17.3,26.5,0.00,Snow,Light Snow,270,2013-02-20 14:56:00
10:51 AM,17.6,10.4,73,30.10,2.5,West,19.6,24.2,0.00,Snow,Light Snow,280,2013-02-20 15:51:00
10:56 AM,18.0,10.9,74,30.16,4.0,WNW,17.3,25.3,0.00,Snow,Light Snow,290,2013-02-20 15:56:00
11:05 AM,17.6,10.4,73,30.10,1.8,West,16.1,23.0,0.00,Snow,Light Snow,280,2013-02-20 16:05:00
11:33 AM,19.4,12.2,74,30.11,3.0,West,12.7,18.4,0.00,Snow,Light Snow,270,2013-02-20 16:33:00
11:43 AM,19.4,12.2,74,30.11,1.8,West,12.7,-,0.00,Snow,Light Snow,280,2013-02-20 16:43:00
11:56 AM,19.0,12.9,77,30.17,1.8,WNW,18.4,-,0.00,Snow,Light Snow,290,2013-02-20 16:56:00
12:04 PM,17.6,12.2,79,30.11,0.8,West,15.0,-,0.00,Snow,Light Snow,280,2013-02-20 17:04:00
12:17 PM,19.4,12.2,74,30.12,1.2,West,13.8,-,0.00,Snow,Light Snow,280,2013-02-20 17:17:00
12:37 PM,19.4,12.2,74,30.12,1.0,West,17.3,-,0.00,Snow,Light Snow,280,2013-02-20 17:37:00
12:45 PM,19.4,12.2,74,30.12,1.5,West,16.1,-,0.00,Snow,Light Snow,280,2013-02-20 17:45:00
12:56 PM,19.0,12.9,77,30.19,1.2,WNW,15.0,-,0.00,Snow,Light Snow,290,2013-02-20 17:56:00
1:13 PM,19.4,14.0,80,30.12,1.0,WNW,19.6,-,0.00,Snow,Light Snow,290,2013-02-20 18:13:00
1:16 PM,19.4,12.2,74,30.12,0.8,WNW,18.4,-,0.00,Snow,Light Snow,290,2013-02-20 18:16:00
1:26 PM,19.4,14.0,80,30.12,1.0,NW,16.1,-,0.00,Snow,Light Snow,310,2013-02-20 18:26:00
1:36 PM,19.4,12.2,74,30.12,0.8,WNW,18.4,24.2,0.00,Snow,Light Snow,290,2013-02-20 18:36:00
1:42 PM,17.6,12.2,79,30.12,1.0,West,16.1,24.2,0.00,Snow,Light Snow,280,2013-02-20 18:42:00
1:49 PM,19.4,12.2,74,30.12,2.0,West,15.0,-,0.00,Snow,Light Snow,280,2013-02-20 18:49:00
2:21 PM,19.4,12.2,74,30.13,6.0,WNW,17.3,-,0.00,Snow,Light Snow,300,2013-02-20 19:21:00
2:33 PM,19.4,12.2,74,30.13,3.0,WNW,11.5,-,0.00,Snow,Light Snow,290,2013-02-20 19:33:00
2:53 PM,19.4,14.0,80,30.14,2.5,WNW,13.8,-,0.00,Snow,Light Snow,290,2013-02-20 19:53:00
2:56 PM,19.9,14.0,78,30.20,3.0,WNW,11.5,-,0.00,Snow,Light Snow,290,2013-02-20 19:56:00
3:07 PM,19.4,14.0,80,30.14,1.8,West,11.5,-,0.00,Snow,Light Snow,280,2013-02-20 20:07:00
3:13 PM,19.4,14.0,80,30.14,0.8,WNW,12.7,-,0.00,Snow,Light Snow,300,2013-02-20 20:13:00
3:24 PM,19.4,15.8,86,30.15,1.2,NW,11.5,-,0.00,Snow,Light Snow,310,2013-02-20 20:24:00
3:32 PM,19.4,14.0,80,30.15,2.0,WNW,12.7,-,0.00,Snow,Light Snow,300,2013-02-20 20:32:00
3:40 PM,19.4,14.0,80,30.16,1.2,WNW,15.0,-,0.00,Snow,Light Snow,300,2013-02-20 20:40:00
4:02 PM,19.4,14.0,80,30.17,3.0,West,11.5,-,0.00,Snow,Light Snow,280,2013-02-20 21:02:00
4:14 PM,19.4,14.0,80,30.18,5.0,WNW,12.7,-,0.00,Snow,Light Snow,290,2013-02-20 21:14:00
4:37 PM,19.4,14.0,80,30.19,1.8,WNW,12.7,-,0.00,Snow,Light Snow,290,2013-02-20 21:37:00
4:48 PM,19.4,15.8,86,30.18,3.0,WNW,9.2,-,0.00,Snow,Light Snow,290,2013-02-20 21:48:00
4:56 PM,19.9,14.0,78,30.25,8.0,WNW,10.4,-,0.00,,Overcast,290,2013-02-20 21:56:00
5:17 PM,19.4,14.0,80,30.18,2.5,West,8.1,-,0.00,Snow,Light Snow,280,2013-02-20 22:17:00
5:42 PM,19.4,14.0,80,30.18,4.0,WNW,8.1,-,0.00,Snow,Light Snow,290,2013-02-20 22:42:00
5:52 PM,19.4,14.0,80,30.18,2.5,West,8.1,-,0.00,Snow,Light Snow,280,2013-02-20 22:52:00
5:56 PM,19.0,15.1,85,30.25,2.0,West,8.1,-,0.00,Snow,Light Snow,280,2013-02-20 22:56:00
6:07 PM,19.4,14.0,80,30.18,4.0,WNW,10.4,-,0.00,Snow,Light Snow,290,2013-02-20 23:07:00
6:25 PM,19.4,14.0,80,30.19,2.0,WNW,9.2,-,0.00,Snow,Light Snow,290,2013-02-20 23:25:00
6:35 PM,19.4,14.0,80,30.19,5.0,West,6.9,-,0.00,Snow,Light Snow,280,2013-02-20 23:35:00
6:56 PM,19.0,14.0,81,30.25,9.0,West,9.2,-,0.00,,Overcast,280,2013-02-20 23:56:00
7:56 PM,19.0,14.0,81,30.26,5.0,West,10.4,-,0.00,Snow,Light Snow,280,2013-02-21 00:56:00
8:56 PM,19.0,15.1,85,30.26,5.0,West,8.1,-,0.00,Snow,Light Snow,270,2013-02-21 01:56:00
9:43 PM,19.4,15.8,86,30.20,2.5,West,8.1,-,0.00,Snow,Light Snow,280,2013-02-21 02:43:00
9:56 PM,19.0,15.1,85,30.27,3.0,WNW,6.9,-,0.00,Snow,Light Snow,290,2013-02-21 02:56:00
10:26 PM,19.4,14.0,80,30.20,10.0,WNW,10.4,-,0.00,,Overcast,290,2013-02-21 03:26:00
10:56 PM,19.0,12.9,77,30.26,10.0,NW,10.4,-,0.00,,Overcast,320,2013-02-21 03:56:00
11:56 PM,19.0,12.0,74,30.25,6.0,WNW,9.2,-,0.00,,Haze,300,2013-02-21 04:56:00